sat.trackr.live / text

‹ back to catalog

STARLINK-30570

NORAD 58095 · 2023-160W

PAYLOAD ACTIVE UNKNOWN

§ Identity

Operator
Country
US
Launch date
2023-10-18
Launch site
AFETR
Launch vehicle
Mass (kg)
RCS (m²)

Purposes: comms

External: N2YO · Heavens-Above · Gunter

§ Orbital elements

Epoch: 2026-09-20T21:58:23.824128Z

Period
94.27 min
Inclination
43.0005°
Eccentricity
0.0001298
Mean motion
15.27580600 rev/d
Perigee alt
482.2 km
Apogee alt
483.9 km
Semi-major
6,861.2 km
B*
2.6476e-5
RAAN
55.3047°
Arg perigee
268.1550°
Mean anomaly
91.9153°
Rev number
16,280

§ Raw data

STARLINK-305701 58095U 23160W   26263.91555352  .00000467  00000+0  26476-4 0  99982 58095  43.0005  55.3047 0001298 268.1550  91.9153 15.27580600162801

JSON: /api/v1/satellites/58095 · /tle

For live sub-satellite position, see the globe view (requires WebGL).

§ Visibility from observer

Set your observer location to see the next 7 days of passes ≥ 10°. The values pass through the URL so the page stays shareable.

No JS? Fill the form by hand. The geolocation button needs JavaScript.